GW5586 Weather Reports


time (UTC)temp
C
wind
direction
speed
KPH
gust
KPH
rain 1hr
cm
rain 24hr
cm
rain mn
cm
humidity
%
barometer
mb
20260506070523 7 275 11.3 22.5 0.00 0.00 0.00 73 1018.0
20260506070206 7 279 11.3 22.5 0.00 0.00 0.00 73 1018.1
20260506062046 7 259 11.3 22.5 0.00 0.00 0.00 73 1017.9
20260506061615 7 255 11.3 24.1 0.00 0.00 0.00 73 1018.0
20260506061044 7 279 12.9 24.1 0.00 0.00 0.00 73 1017.9
20260506060537 7 265 14.5 24.1 0.00 0.00 0.00 73 1017.8
20260506060136 7 247 16.1 22.5 0.00 0.00 0.00 73 1017.8
20260506051111 8 281 16.1 30.6 0.00 0.00 0.00 71 1017.7
20260506050547 8 261 16.1 25.7 0.00 0.00 0.00 71 1017.7
20260506050209 8 285 12.9 29.0 0.00 0.00 0.00 70 1017.7
20260506045100 8 292 12.9 29.0 0.00 0.00 0.00 70 1017.6
20260506044652 8 272 12.9 29.0 0.00 0.00 0.00 70 1017.7
20260506044034 8 298 11.3 27.4 0.00 0.00 0.00 70 1017.6
20260506043521 8 248 14.5 29.0 0.00 0.00 0.00 70 1017.6
20260506043110 8 300 16.1 29.0 0.00 0.00 0.00 69 1017.3
20260506042611 8 288 12.9 27.4 0.00 0.00 0.00 69 1017.2
20260506042111 9 288 11.3 24.1 0.00 0.00 0.00 68 1017.0
20260506041647 9 267 12.9 25.7 0.00 0.00 0.00 68 1016.8
20260506041023 9 284 12.9 25.7 0.00 0.00 0.00 68 1016.8
20260506040529 9 317 12.9 22.5 0.00 0.00 0.00 67 1016.8
20260506040118 10 340 8.0 25.7 0.00 0.00 0.00 66 1016.7
20260506035530 10 290 12.9 27.4 0.00 0.00 0.00 65 1016.5
20260506035028 10 290 17.7 27.4 0.00 0.00 0.00 64 1016.5
20260506034614 10 272 11.3 25.7 0.00 0.00 0.00 64 1016.4
20260506034034 10 340 14.5 25.7 0.00 0.00 0.00 63 1016.0
20260506033548 10 335 11.3 30.6 0.00 0.00 0.00 64 1016.1
20260506033144 11 329 11.3 27.4 0.00 0.00 0.00 63 1016.0
20260506032526 11 308 12.9 30.6 0.00 0.00 0.00 62 1016.0
20260506032110 11 293 17.7 29.0 0.00 0.00 0.00 62 1016.0
20260506031625 11 312 16.1 27.4 0.00 0.00 0.00 61 1015.9
20260506031019 11 347 14.5 29.0 0.00 0.00 0.00 60 1015.8
20260506030522 11 334 12.9 27.4 0.00 0.00 0.00 59 1015.8
20260506030132 11 266 12.9 24.1 0.00 0.00 0.00 59 1015.8
20260506025616 12 285 14.5 27.4 0.00 0.00 0.00 59 1015.7
20260506025034 12 320 16.1 27.4 0.00 0.00 0.00 59 1015.6
20260506024616 12 327 14.5 27.4 0.00 0.00 0.00 57 1015.6
20260506024057 12 317 12.9 27.4 0.00 0.00 0.00 57 1015.6
20260506023615 12 297 14.5 30.6 0.00 0.00 0.00 56 1015.6
20260506023110 12 317 12.9 30.6 0.00 0.00 0.00 57 1015.4
20260506022533 12 340 12.9 29.0 0.00 0.00 0.00 57 1015.2
20260506022035 12 333 14.5 32.2 0.00 0.00 0.00 56 1015.2
20260506021628 12 319 16.1 32.2 0.00 0.00 0.00 56 1015.3
20260506021030 12 275 12.9 32.2 0.00 0.00 0.00 56 1015.3
20260506020519 12 300 17.7 32.2 0.00 0.00 0.00 55 1015.3
20260506020110 13 275 9.7 29.0 0.00 0.00 0.00 56 1015.3
20260506015545 13 298 12.9 29.0 0.00 0.00 0.00 54 1015.2
20260506015031 13 318 12.9 29.0 0.00 0.00 0.00 54 1015.3
20260506014611 13 223 14.5 29.0 0.00 0.00 0.00 54 1015.3
20260506014044 13 316 14.5 29.0 0.00 0.00 0.00 56 1015.3
20260506013546 13 317 12.9 29.0 0.00 0.00 0.00 55 1015.2
20260506013105 13 316 14.5 32.2 0.00 0.00 0.00 57 1015.2
20260506012535 13 342 16.1 32.2 0.00 0.00 0.00 58 1015.2
20260506012032 13 344 20.9 30.6 0.00 0.00 0.00 58 1015.2
20260506011615 13 324 17.7 30.6 0.00 0.00 0.00 57 1015.2
20260506011032 13 320 16.1 32.2 0.00 0.00 0.00 58 1015.2
20260506010519 13 318 14.5 32.2 0.00 0.00 0.00 58 1015.2
20260506010153 13 348 14.5 29.0 0.00 0.00 0.00 57 1015.3
20260506005522 13 323 17.7 32.2 0.00 0.00 0.00 57 1015.2
20260506005030 13 313 20.9 32.2 0.00 0.00 0.00 56 1015.2
20260506004555 13 321 16.1 32.2 0.00 0.00 0.00 57 1015.0
20260506004022 14 342 16.1 27.4 0.00 0.00 0.00 58 1015.2
20260506003522 14 313 11.3 27.4 0.00 0.00 0.00 59 1015.1
20260506003137 14 315 12.9 29.0 0.00 0.00 0.00 58 1015.2
20260506002546 14 321 17.7 29.0 0.00 0.00 0.00 56 1015.2
20260506002037 14 326 12.9 27.4 0.00 0.00 0.00 57 1015.2
20260506001631 14 283 12.9 27.4 0.00 0.00 0.00 57 1015.2
20260506001039 15 304 17.7 33.8 0.00 0.00 0.00 58 1015.3
20260506000542 15 327 16.1 30.6 0.00 0.00 0.00 58 1015.2
20260506000134 15 340 12.9 27.4 0.00 0.00 0.00 56 1015.2
20260505235530 15 332 14.5 29.0 0.00 0.00 0.00 57 1015.1
20260505235048 15 305 11.3 29.0 0.00 0.00 0.00 59 1015.1
20260505234611 14 330 16.1 29.0 0.00 0.00 0.00 59 1015.1
20260505234019 14 296 17.7 27.4 0.00 0.00 0.00 60 1015.0
20260505233529 15 286 17.7 27.4 0.00 0.00 0.00 59 1015.2
20260505233131 15 324 14.5 24.1 0.00 0.00 0.00 57 1015.2
20260505232542 15 327 12.9 22.5 0.00 0.00 0.00 57 1015.2
20260505232028 16 289 8.0 20.9 0.00 0.00 0.00 57 1015.1
20260505231616 16 288 9.7 20.9 0.00 0.00 0.00 55 1015.1
20260505231038 16 352 9.7 20.9 0.00 0.00 0.00 54 1015.1
20260505230518 16 314 8.0 25.7 0.00 0.00 0.00 56 1015.0
20260505230118 15 321 9.7 25.7 0.00 0.00 0.00 56 1014.9
20260505225536 16 328 8.0 17.7 0.00 0.00 0.00 55 1014.9
20260505225030 16 22 6.4 12.9 0.00 0.00 0.00 56 1015.0
20260505224641 16 9 6.4 25.7 0.00 0.00 0.00 57 1015.0
20260505224016 15 316 4.8 25.7 0.00 0.00 0.00 56 1015.0
20260505223513 16 321 9.7 24.1 0.00 0.00 0.00 55 1014.7
20260505223109 16 13 9.7 22.5 0.00 0.00 0.00 55 1014.9
20260505222605 16 320 11.3 29.0 0.00 0.00 0.00 56 1015.0
20260505222034 16 318 12.9 29.0 0.00 0.00 0.00 55 1014.9
20260505221623 16 347 6.4 20.9 0.00 0.00 0.00 55 1015.1
20260505221109 17 318 8.0 20.9 0.00 0.00 0.00 54 1015.2
20260505220607 17 328 9.7 20.9 0.00 0.00 0.00 53 1015.1
20260505220054 18 5 4.8 8.0 0.00 0.00 0.00 56 1015.0
20260505215535 18 33 1.6 11.3 0.00 0.00 0.00 58 1015.0
20260505215034 17 326 3.2 11.3 0.00 0.00 0.00 52 1014.9
20260505214609 18 135 3.2 6.4 0.00 0.00 0.00 59 1014.9
20260505214113 18 19 3.2 6.4 0.00 0.00 0.00 60 1014.8
20260505213535 17 33 3.2 8.0 0.00 0.00 0.00 60 1014.7
20260505213106 17 77 3.2 8.0 0.00 0.00 0.00 61 1014.7
20260505212556 18 38 4.8 8.0 0.00 0.00 0.00 61 1014.6
20260505212037 18 38 3.2 9.7 0.00 0.00 0.00 59 1014.6
20260505211535 18 13 1.6 14.5 0.00 0.00 0.00 59 1014.6
20260505211031 18 26 6.4 14.5 0.00 0.00 0.00 58 1014.5
20260505210521 18 67 3.2 14.5 0.00 0.00 0.00 59 1014.5
20260505210130 18 72 4.8 14.5 0.00 0.00 0.00 57 1014.3
20260505205530 18 39 4.8 14.5 0.00 0.00 0.00 55 1014.3
20260505205041 18 53 4.8 14.5 0.00 0.00 0.00 55 1014.3
20260505204532 18 40 6.4 14.5 0.00 0.00 0.00 56 1014.2
20260505204034 18 45 4.8 9.7 0.00 0.00 0.00 59 1014.1
20260505203542 18 59 3.2 8.0 0.00 0.00 0.00 57 1014.2
20260505203138 18 340 3.2 9.7 0.00 0.00 0.00 53 1014.2
20260505202539 18 317 3.2 12.9 0.00 0.00 0.00 53 1014.0
20260505202021 18 274 6.4 12.9 0.00 0.00 0.00 52 1014.0
20260505201548 18 277 4.8 9.7 0.00 0.00 0.00 52 1013.9
20260505201038 18 325 6.4 9.7 0.00 0.00 0.00 53 1013.9
20260505200535 18 11 3.2 11.3 0.00 0.00 0.00 53 1014.0
20260505200059 18 352 4.8 17.7 0.00 0.00 0.00 53 1014.0
20260505195538 18 246 9.7 17.7 0.00 0.00 0.00 52 1014.1
20260505195038 18 89 3.2 12.9 0.00 0.00 0.00 54 1014.0
20260505194631 18 195 4.8 12.9 0.00 0.00 0.00 52 1014.0
20260505194034 17 211 3.2 12.9 0.00 0.00 0.00 55 1014.0
20260505193531 17 222 4.8 12.9 0.00 0.00 0.00 55 1013.9
20260505193135 17 327 4.8 16.1 0.00 0.00 0.00 58 1013.7
20260505192543 16 299 6.4 17.7 0.00 0.00 0.00 59 1013.6
20260505192107 16 338 8.0 17.7 0.00 0.00 0.00 60 1013.6
20260505191632 16 319 8.0 17.7 0.00 0.00 0.00 59 1013.8
20260505191021 16 300 8.0 17.7 0.00 0.00 0.00 60 1013.7
20260505190610 16 315 6.4 12.9 0.00 0.00 0.00 61 1013.7
20260505190103 16 305 6.4 12.9 0.00 0.00 0.00 61 1013.6
20260505185520 16 217 1.6 16.1 0.00 0.00 0.00 63 1013.6
20260505185035 16 140 6.4 16.1 0.00 0.00 0.00 61 1013.6
20260505184627 16 315 3.2 12.9 0.00 0.00 0.00 63 1013.5
20260505184021 16 327 4.8 12.9 0.00 0.00 0.00 62 1013.5
20260505183616 16 15 6.4 12.9 0.00 0.00 0.00 61 1013.5
20260505183127 16 360 4.8 6.4 0.00 0.00 0.00 61 1013.6
20260505182525 16 360 3.2 6.4 0.00 0.00 0.00 62 1013.5
20260505182048 16 5 3.2 4.8 0.00 0.00 0.00 60 1013.4
20260505181635 16 56 1.6 4.8 0.00 0.00 0.00 60 1013.4
20260505181035 16 31 1.6 4.8 0.00 0.00 0.00 61 1013.5
20260505180533 16 57 1.6 4.8 0.00 0.00 0.00 61 1013.5
20260505180151 16 60 1.6 4.8 0.00 0.00 0.00 62 1013.3
20260505175530 16 47 3.2 6.4 0.00 0.00 0.00 61 1013.3
20260505175017 16 33 4.8 6.4 0.00 0.00 0.00 62 1013.2
20260505174538 15 39 3.2 6.4 0.00 0.00 0.00 63 1013.2
20260505174041 15 61 1.6 8.0 0.00 0.00 0.00 62 1013.2
20260505173620 15 59 4.8 8.0 0.00 0.00 0.00 63 1013.2
20260505173107 15 36 3.2 6.4 0.00 0.00 0.00 65 1013.2
20260505172518 15 21 3.2 8.0 0.00 0.00 0.00 65 1013.1
20260505172019 15 53 3.2 8.0 0.00 0.00 0.00 67 1013.1
20260505171619 15 20 4.8 8.0 0.00 0.00 0.00 68 1013.0
20260505171046 15 32 4.8 8.0 0.00 0.00 0.00 68 1012.9
20260505170525 14 51 3.2 6.4 0.00 0.00 0.00 69 1012.9
20260505170124 14 62 3.2 6.4 0.00 0.00 0.00 69 1013.0
20260505165525 14 39 3.2 6.4 0.00 0.00 0.00 68 1013.0
20260505165106 15 44 3.2 8.0 0.00 0.00 0.00 69 1013.0
20260505164603 14 58 4.8 6.4 0.00 0.00 0.00 69 1013.0
20260505164026 14 51 3.2 6.4 0.00 0.00 0.00 71 1013.0
20260505163525 13 38 3.2 6.4 0.00 0.00 0.00 70 1012.9
20260505163058 13 11 1.6 4.8 0.00 0.00 0.00 70 1012.9
20260505162558 13 5 1.6 4.8 0.00 0.00 0.00 71 1012.9
20260505162022 13 44 1.6 4.8 0.00 0.00 0.00 71 1012.8
20260505161613 13 64 3.2 4.8 0.00 0.00 0.00 72 1012.7
20260505161030 13 44 1.6 4.8 0.00 0.00 0.00 73 1012.8
20260505160616 13 25 1.6 4.8 0.00 0.00 0.00 74 1012.7
20260505153053 12 19 1.6 4.8 0.00 0.00 0.00 75 1012.2
20260505152528 12 36 1.6 4.8 0.00 0.00 0.00 74 1012.3
20260505152045 12 40 1.6 6.4 0.00 0.00 0.00 74 1012.2
20260505151640 12 154 1.6 6.4 0.00 0.00 0.00 74 1012.1
20260505151038 13 37 3.2 4.8 0.00 0.00 0.00 74 1012.0
20260505150536 12 80 1.6 4.8 0.00 0.00 0.00 73 1012.0
20260505140541 11 5 0.0 3.2 0.00 0.00 0.00 79 1011.7
20260505140121 11 5 0.0 3.2 0.00 0.00 0.00 78 1011.6
20260505130200 10 169 3.2 8.0 0.00 0.00 0.00 75 1011.3
20260505124645 10 115 3.2 6.4 0.00 0.00 0.00 77 1011.2
20260505124046 10 121 3.2 9.7 0.00 0.00 0.00 77 1011.2
20260505123536 10 104 4.8 9.7 0.00 0.00 0.00 76 1011.2
20260505123111 10 137 1.6 4.8 0.00 0.00 0.00 75 1011.2
20260505122526 10 105 1.6 4.8 0.00 0.00 0.00 74 1011.2
20260505122057 10 119 1.6 4.8 0.00 0.00 0.00 74 1011.2
20260505121618 10 127 1.6 4.8 0.00 0.00 0.00 75 1011.2
20260505121025 10 123 1.6 4.8 0.00 0.00 0.00 76 1011.2
20260505120534 10 134 3.2 4.8 0.00 0.00 0.00 77 1011.2
20260505120127 10 124 1.6 4.8 0.00 0.00 0.00 76 1011.2
20260505115530 10 158 0.0 4.8 0.00 0.00 0.00 75 1011.2
20260505115016 10 158 1.6 4.8 0.00 0.00 0.00 77 1011.1
20260505114627 10 89 1.6 9.7 0.00 0.00 0.00 76 1011.2
20260505114037 10 130 1.6 9.7 0.00 0.00 0.00 77 1011.0
20260505113533 10 120 3.2 6.4 0.00 0.00 0.00 78 1011.2
20260505113120 10 110 3.2 6.4 0.00 0.00 0.00 76 1011.2
20260505112533 10 102 1.6 4.8 0.00 0.00 0.00 75 1011.1
20260505112048 11 104 1.6 6.4 0.00 0.00 0.00 74 1011.0
20260505111601 11 121 3.2 6.4 0.00 0.00 0.00 75 1011.0
20260505111027 11 119 1.6 4.8 0.00 0.00 0.00 72 1010.9
20260505110540 11 137 1.6 9.7 0.00 0.00 0.00 72 1010.9
20260505102040 12 130 1.6 6.4 0.00 0.00 0.00 69 1010.9
20260505101608 12 134 3.2 6.4 0.00 0.00 0.00 69 1011.0
20260505101100 12 139 3.2 11.3 0.00 0.00 0.00 70 1010.9
20260505100525 12 135 4.8 11.3 0.00 0.00 0.00 71 1011.0
20260505100101 12 147 3.2 8.0 0.00 0.00 0.00 71 1011.0
20260505095548 12 133 1.6 6.4 0.00 0.00 0.00 70 1011.0
20260505095016 12 132 3.2 6.4 0.00 0.00 0.00 70 1011.0
20260505094626 12 113 1.6 6.4 0.00 0.00 0.00 68 1011.0
20260505094022 12 139 1.6 4.8 0.00 0.00 0.00 66 1011.2
20260505093548 13 134 1.6 9.7 0.00 0.00 0.00 65 1011.1
20260505093117 13 100 3.2 9.7 0.00 0.00 0.00 65 1011.1
20260505092603 13 101 4.8 12.9 0.00 0.00 0.00 65 1011.0
20260505092108 13 138 4.8 12.9 0.00 0.00 0.00 65 1010.9
20260505091623 12 127 3.2 6.4 0.00 0.00 0.00 67 1010.9
20260505091049 13 130 3.2 6.4 0.00 0.00 0.00 67 1010.8
20260505090612 12 138 3.2 6.4 0.00 0.00 0.00 68 1010.8
20260505090113 12 125 3.2 8.0 0.00 0.00 0.00 68 1010.8
20260505085600 12 101 3.2 6.4 0.00 0.00 0.00 70 1010.8
20260505085109 12 136 1.6 6.4 0.00 0.00 0.00 72 1010.8
20260505084615 12 130 3.2 6.4 0.00 0.00 0.00 71 1010.9
20260505084056 12 144 3.2 8.0 0.00 0.00 0.00 72 1010.9
20260505083557 12 126 3.2 4.8 0.00 0.00 0.00 72 1011.0
20260505083120 12 103 3.2 4.8 0.00 0.00 0.00 70 1011.0
20260505082550 12 142 1.6 6.4 0.00 0.00 0.00 70 1010.9
20260505082116 13 118 1.6 9.7 0.00 0.00 0.00 69 1010.9
20260505081629 13 127 3.2 11.3 0.00 0.00 0.00 69 1010.9
20260505081058 13 113 3.2 12.9 0.00 0.00 0.00 67 1010.9
20260505080610 13 130 3.2 12.9 0.00 0.00 0.00 66 1011.0
20260505080109 14 142 4.8 11.3 0.00 0.00 0.00 64 1010.9
20260505075602 14 130 4.8 12.9 0.00 0.00 0.00 63 1010.8
20260505075112 14 136 6.4 12.9 0.00 0.00 0.00 64 1010.8
20260505074610 14 132 6.4 11.3 0.00 0.00 0.00 63 1010.7
20260505074106 14 109 4.8 8.0 0.00 0.00 0.00 61 1010.8
20260505073548 14 118 3.2 6.4 0.00 0.00 0.00 60 1010.8
20260505073130 14 138 3.2 8.0 0.00 0.00 0.00 61 1010.8
20260505072603 13 148 3.2 8.0 0.00 0.00 0.00 62 1011.0
20260505072017 13 148 3.2 6.4 0.00 0.00 0.00 67 1010.9
20260505071550 12 128 1.6 8.0 0.00 0.00 0.00 69 1010.8
20260505071045 12 159 1.6 3.2 0.00 0.00 0.00 68 1010.8